Weather History for KPQI - March, 2013

Change the Weather History Date:

Thursday, March 21, 2013

  Actual Average Record
Temperature  
Mean Temperature 22 °F -  
Max Temperature 33 °F 36 °F 77 °F (2012)
Min Temperature 12 °F 17 °F -8 °F (1934)
Degree Days  
Heating Degree Days 42    
Moisture  
Dew Point 17 °F    
Average Humidity 71    
Maximum Humidity 93    
Minimum Humidity 48    
Precipitation  
Precipitation 0.02 in - - ()
Sea Level Pressure  
Sea Level Pressure 29.54 in    
Wind  
Wind Speed - (North)    
Max Wind Speed -    
Max Gust Speed -    
Visibility 10 miles    
Events      
Averages and records for this station are not official NWS values.
T = Trace of Precipitation, MM = Missing Value Source: NWS Daily Summary

Daily Weather History Graph

Daily Weather History Graph

Search for Another Location

Airport or City:

Trip Planner

Search our weather history database for the weather conditions in past years. The results will help you decide how hot, cold, wet, or windy it might be!

Date:

Astronomy

Mar. 21, 2013 Rise Set
Actual Time 6:32 AM EDT 6:46 PM EDT
Civil Twilight 6:02 AM EDT 7:16 PM EDT
Nautical Twilight 5:27 AM EDT 7:52 PM EDT
Astronomical Twilight 4:50 AM EDT 8:29 PM EDT
Moon 12:55 PM EDT (3/21) 3:10 AM EDT (3/21)
Length of Visible Light 13h 14m
Length of Day
12h 13m
Waxing Gibbous, 68% of the Moon is Illuminated
Mar 21
Waxing Gibbous
Mar 27
Full
Apr 3
Last Quarter
Apr 10
New
Apr 18
First Quarter

Hourly Weather History & Observations

Time (EDT) Temp. Dew Point Humidity Pressure Visibility Wind Dir Wind Speed Gust Speed Precip Events Conditions
12:15 AM 24.8 °F 17.6 °F 74% 29.42 in 10.0 mi North - - N/A   Overcast
12:35 AM 24.8 °F 15.8 °F 69% 29.43 in 10.0 mi North - - N/A   Overcast
12:55 AM 23.0 °F 17.6 °F 80% 29.43 in 10.0 mi North - - N/A   Overcast
1:15 AM 21.2 °F 15.8 °F 80% 29.44 in 10.0 mi North - - N/A   Overcast
1:35 AM 21.2 °F 15.8 °F 80% 29.44 in 10.0 mi North - - N/A   Scattered Clouds
1:55 AM 21.2 °F 15.8 °F 80% 29.45 in 10.0 mi North - - N/A   Mostly Cloudy
2:15 AM 21.2 °F 15.8 °F 80% 29.45 in 10.0 mi North - - N/A   Overcast
2:35 AM 21.2 °F 15.8 °F 80% 29.46 in 10.0 mi North - - N/A   Overcast
2:55 AM 21.2 °F 15.8 °F 80% 29.46 in 10.0 mi North - - N/A   Overcast
3:15 AM 21.2 °F 15.8 °F 80% 29.46 in 10.0 mi North - - N/A   Scattered Clouds
3:35 AM 21.2 °F 15.8 °F 80% 29.46 in 10.0 mi North - - N/A   Partly Cloudy
3:55 AM 21.2 °F 15.8 °F 80% 29.46 in 10.0 mi North - - N/A   Mostly Cloudy
4:15 AM 21.2 °F 17.6 °F 86% 29.46 in 10.0 mi North - - N/A   Mostly Cloudy
4:35 AM 21.2 °F 17.6 °F 86% 29.47 in 9.0 mi North - - N/A   Overcast
4:55 AM 21.2 °F 17.6 °F 86% 29.47 in 10.0 mi North - - N/A   Overcast
5:15 AM 21.2 °F 17.6 °F 86% 29.48 in 5.0 mi North - - N/A   Overcast
5:35 AM 21.2 °F 17.6 °F 86% 29.49 in 3.0 mi North - - N/A   Overcast
5:55 AM 21.2 °F 17.6 °F 86% 29.49 in 5.0 mi North - - N/A   Overcast
6:15 AM 21.2 °F 17.6 °F 86% 29.50 in 8.0 mi North - - N/A   Overcast
6:35 AM 23.0 °F 17.6 °F 80% 29.51 in 10.0 mi North - - N/A   Overcast
6:55 AM 23.0 °F 17.6 °F 80% 29.52 in 10.0 mi North - - N/A   Overcast
7:15 AM 23.0 °F 17.6 °F 80% 29.52 in 10.0 mi North - - N/A   Overcast
7:35 AM 23.0 °F 17.6 °F 80% 29.52 in 10.0 mi North - - N/A   Overcast
7:55 AM 24.8 °F 17.6 °F 74% 29.53 in 10.0 mi North - - N/A   Mostly Cloudy
8:15 AM 24.8 °F 17.6 °F 74% 29.54 in 10.0 mi North - - N/A   Mostly Cloudy
8:35 AM 24.8 °F 17.6 °F 74% 29.55 in 10.0 mi North - - N/A   Overcast
8:55 AM 26.6 °F 17.6 °F 69% 29.55 in 10.0 mi North - - N/A   Scattered Clouds
9:15 AM 28.4 °F 17.6 °F 64% 29.56 in 10.0 mi North - - N/A   Mostly Cloudy
9:55 AM 28.4 °F 17.6 °F 64% 29.56 in 10.0 mi North - - N/A   Overcast
10:15 AM 30.2 °F 17.6 °F 60% 29.57 in 10.0 mi North - - N/A   Overcast
10:35 AM 30.2 °F 17.6 °F 60% 29.57 in 10.0 mi North - - N/A   Overcast
10:55 AM 30.2 °F 17.6 °F 60% 29.58 in 10.0 mi North - - N/A   Overcast
11:15 AM 30.2 °F 17.6 °F 60% 29.59 in 10.0 mi North - - N/A   Overcast
11:35 AM 30.2 °F 17.6 °F 60% 29.59 in 10.0 mi North - - N/A   Overcast
11:55 AM 32.0 °F 15.8 °F 51% 29.59 in 10.0 mi North - - N/A   Overcast
12:15 PM 32.0 °F 17.6 °F 55% 29.59 in 10.0 mi North - - N/A   Overcast
12:35 PM 33.8 °F 15.8 °F 48% 29.59 in 10.0 mi North - - 0.01 in   Mostly Cloudy
12:55 PM 33.8 °F 15.8 °F 48% 29.59 in 10.0 mi North - - 0.01 in   Mostly Cloudy
1:15 PM 33.8 °F 15.8 °F 48% 29.59 in 10.0 mi North - - N/A   Overcast
1:35 PM 33.8 °F 15.8 °F 48% 29.59 in 10.0 mi North - - N/A   Overcast
1:55 PM 33.8 °F 15.8 °F 48% 29.58 in 10.0 mi North - - 0.01 in   Overcast
2:15 PM 33.8 °F 17.6 °F 52% 29.58 in 10.0 mi North - - N/A   Overcast
2:35 PM 33.8 °F 17.6 °F 52% 29.58 in 10.0 mi North - - N/A   Overcast
2:55 PM 33.8 °F 17.6 °F 52% 29.58 in 10.0 mi North - - N/A   Overcast
3:15 PM 33.8 °F 17.6 °F 52% 29.59 in 10.0 mi North - - N/A   Overcast
3:35 PM 33.8 °F 19.4 °F 56% 29.59 in 10.0 mi North - - N/A   Mostly Cloudy
3:55 PM 33.8 °F 19.4 °F 56% 29.59 in 10.0 mi North - - N/A   Overcast
4:15 PM 33.8 °F 19.4 °F 56% 29.58 in 10.0 mi North - - N/A   Overcast
4:35 PM 33.8 °F 17.6 °F 52% 29.57 in 10.0 mi North - - N/A   Mostly Cloudy
4:55 PM 33.8 °F 21.2 °F 60% 29.58 in 10.0 mi North - - N/A   Overcast
5:15 PM 33.8 °F 19.4 °F 56% 29.58 in 10.0 mi North - - N/A   Overcast
5:35 PM 32.0 °F 21.2 °F 64% 29.58 in 10.0 mi North - - N/A   Overcast
5:55 PM 30.2 °F 21.2 °F 69% 29.59 in 10.0 mi North - - N/A   Overcast
6:35 PM 30.2 °F 21.2 °F 69% 29.60 in 10.0 mi North - - N/A   Mostly Cloudy
6:55 PM 28.4 °F 21.2 °F 74% 29.59 in 10.0 mi North - - N/A   Partly Cloudy
7:15 PM 26.6 °F 21.2 °F 80% 29.59 in 10.0 mi North - - N/A   Clear
7:35 PM 26.6 °F 19.4 °F 74% 29.58 in 10.0 mi North - - N/A   Clear
7:55 PM 26.6 °F 19.4 °F 74% 29.58 in 10.0 mi North - - N/A   Clear
8:15 PM 24.8 °F 19.4 °F 80% 29.58 in 10.0 mi North - - N/A   Clear
8:35 PM 24.8 °F 17.6 °F 74% 29.58 in 10.0 mi North - - N/A   Clear
8:55 PM 24.8 °F 19.4 °F 80% 29.57 in 10.0 mi North - - N/A   Clear
9:15 PM 21.2 °F 17.6 °F 86% 29.57 in 10.0 mi North - - N/A   Clear
9:35 PM 21.2 °F 17.6 °F 86% 29.57 in 10.0 mi North - - N/A   Clear
9:55 PM 21.2 °F 17.6 °F 86% 29.57 in 10.0 mi North - - N/A   Clear
10:15 PM 17.6 °F 14.0 °F 86% 29.56 in 10.0 mi North - - N/A   Clear
10:35 PM 15.8 °F 10.4 °F 79% 29.56 in 10.0 mi North - - N/A   Clear
10:55 PM 15.8 °F 10.4 °F 79% 29.56 in 10.0 mi North - - N/A   Clear
11:15 PM 15.8 °F 14.0 °F 93% 29.56 in 10.0 mi North - - N/A   Clear
11:35 PM 12.2 °F 10.4 °F 92% 29.56 in 10.0 mi North - - N/A   Clear
11:55 PM 12.2 °F 8.6 °F 85% 29.56 in 4.0 mi North - - N/A   Clear